Stündliche Wetter Aalst

Heute, 8 März, Montag

Zeit Temperatur Niederschläge Wind Luftdruck Luftfeuchtigkeit
00:00 +2°C° 0 mm 1 m/S 766 mmHg 77%
01:00 +2°C° 0 mm 1 m/S 766 mmHg 76%
02:00 +2°C° 0 mm 1 m/S 766 mmHg 75%
03:00 +3°C° 0 mm 1 m/S 766 mmHg 75%
04:00 +2°C° 0 mm 1 m/S 766 mmHg 78%
05:00 +2°C° 0 mm 1 m/S 766 mmHg 82%
06:00 +1°C° 0 mm 1 m/S 766 mmHg 85%
07:00 +3°C° 0 mm 1 m/S 766 mmHg 81%
08:00 +4°C° 0 mm 1 m/S 766 mmHg 77%
09:00 +5°C° 0 mm 1 m/S 766 mmHg 73%
10:00 +6°C° 0 mm 1 m/S 766 mmHg 69%
11:00 +7°C° 0 mm 1 m/S 766 mmHg 66%
12:00 +8°C° 0 mm 1 m/S 766 mmHg 62%
13:00 +8°C° 0 mm 1 m/S 765 mmHg 62%
14:00 +8°C° 0 mm 1 m/S 765 mmHg 61%
15:00 +8°C° 0 mm 1 m/S 765 mmHg 61%
16:00 +7°C° 0 mm 1 m/S 765 mmHg 63%
17:00 +7°C° 0 mm 1 m/S 765 mmHg 65%
18:00 +6°C° 0 mm 1 m/S 765 mmHg 68%
19:00 +6°C° 0 mm 1 m/S 765 mmHg 69%
20:00 +6°C° 0 mm 1 m/S 765 mmHg 71%
21:00 +5°C° 0 mm 1 m/S 765 mmHg 72%
22:00 +5°C° 0.1 mm 1 m/S 765 mmHg 75%
23:00 +4°C° 0.1 mm 2 m/S 764 mmHg 77%

Morgen, 9 März, Dienstag

Zeit Temperatur Niederschläge Wind Luftdruck Luftfeuchtigkeit
00:00 +4°C° 0.1 mm 2 m/S 764 mmHg 80%
01:00 +3°C° 0.1 mm 3 m/S 764 mmHg 83%
02:00 +3°C° 0.1 mm 3 m/S 763 mmHg 85%
03:00 +1°C° 0.1 mm 4 m/S 763 mmHg 88%
04:00 +3°C° 0.1 mm 4 m/S 763 mmHg 87%
05:00 +3°C° 0.1 mm 4 m/S 763 mmHg 86%
06:00 +3°C° 0.1 mm 4 m/S 763 mmHg 85%
07:00 +4°C° 0 mm 4 m/S 763 mmHg 82%
08:00 +5°C° 0 mm 4 m/S 763 mmHg 80%
09:00 +6°C° 0 mm 4 m/S 763 mmHg 78%
10:00 +7°C° 0 mm 4 m/S 763 mmHg 72%
11:00 +8°C° 0 mm 5 m/S 763 mmHg 66%
12:00 +9°C° 0 mm 5 m/S 763 mmHg 60%
13:00 +9°C° 0 mm 5 m/S 762 mmHg 59%
14:00 +9°C° 0 mm 5 m/S 762 mmHg 58%
15:00 +9°C° 0 mm 5 m/S 762 mmHg 57%
16:00 +7°C° 0 mm 4 m/S 762 mmHg 63%
17:00 +7°C° 0 mm 3 m/S 762 mmHg 69%
18:00 +6°C° 0 mm 2 m/S 762 mmHg 74%
19:00 +5°C° 0 mm 2 m/S 762 mmHg 78%
20:00 +5°C° 0 mm 2 m/S 763 mmHg 81%
21:00 +4°C° 0 mm 2 m/S 763 mmHg 85%
22:00 +3°C° 0 mm 3 m/S 763 mmHg 87%
23:00 +3°C° 0 mm 3 m/S 763 mmHg 90%

übermorgen, 10 März, Mittwoch

Zeit Temperatur Niederschläge Wind Luftdruck Luftfeuchtigkeit
00:00 +2°C° 0 mm 3 m/S 762 mmHg 92%
01:00 +2°C° 0 mm 3 m/S 762 mmHg 92%
02:00 +2°C° 0 mm 3 m/S 762 mmHg 92%
03:00 +2°C° 0 mm 3 m/S 762 mmHg 93%
04:00 +1°C° 0 mm 4 m/S 762 mmHg 90%
05:00 +1°C° 0 mm 4 m/S 762 mmHg 88%
06:00 +2°C° 0 mm 5 m/S 762 mmHg 86%
07:00 +3°C° 0 mm 5 m/S 762 mmHg 81%
08:00 +4°C° 0 mm 6 m/S 762 mmHg 75%
09:00 +5°C° 0 mm 7 m/S 762 mmHg 70%
10:00 +6°C° 0 mm 7 m/S 761 mmHg 67%
11:00 +6°C° 0 mm 8 m/S 761 mmHg 63%
12:00 +7°C° 0 mm 8 m/S 761 mmHg 60%
13:00 +7°C° 0 mm 8 m/S 760 mmHg 60%
14:00 +7°C° 0 mm 8 m/S 759 mmHg 60%
15:00 +7°C° 0 mm 8 m/S 759 mmHg 61%
16:00 +7°C° 0 mm 8 m/S 758 mmHg 62%
17:00 +6°C° 0 mm 8 m/S 757 mmHg 64%
18:00 +6°C° 0 mm 8 m/S 757 mmHg 65%
19:00 +6°C° 0.6 mm 9 m/S 756 mmHg 70%
20:00 +5°C° 0.6 mm 9 m/S 756 mmHg 76%
21:00 +5°C° 0.6 mm 10 m/S 755 mmHg 81%
22:00 +5°C° 0.2 mm 10 m/S 754 mmHg 82%
23:00 +6°C° 0.2 mm 10 m/S 754 mmHg 82%

11 März, Donnerstag

Zeit Temperatur Niederschläge Wind Luftdruck Luftfeuchtigkeit
00:00 +6°C° 0.2 mm 10 m/S 753 mmHg 83%
01:00 +7°C° 0 mm 10 m/S 752 mmHg 83%
02:00 +7°C° 0 mm 11 m/S 751 mmHg 83%
03:00 +8°C° 0 mm 11 m/S 750 mmHg 84%
04:00 +8°C° 0.7 mm 11 m/S 750 mmHg 85%
05:00 +9°C° 0.7 mm 10 m/S 749 mmHg 87%
06:00 +9°C° 0.7 mm 10 m/S 749 mmHg 89%
07:00 +9°C° 0.9 mm 10 m/S 749 mmHg 81%
08:00 +9°C° 0.9 mm 11 m/S 749 mmHg 73%
09:00 +9°C° 0.9 mm 11 m/S 749 mmHg 66%
10:00 +9°C° 0.1 mm 12 m/S 749 mmHg 62%
11:00 +10°C° 0.1 mm 13 m/S 749 mmHg 59%
12:00 +10°C° 0.1 mm 13 m/S 750 mmHg 55%
13:00 +10°C° 0.2 mm 13 m/S 750 mmHg 56%
14:00 +9°C° 0.2 mm 13 m/S 750 mmHg 57%
15:00 +9°C° 0.2 mm 12 m/S 750 mmHg 57%
16:00 +8°C° 0.1 mm 11 m/S 751 mmHg 60%
17:00 +7°C° 0.1 mm 10 m/S 751 mmHg 62%
18:00 +6°C° 0.1 mm 9 m/S 752 mmHg 64%
19:00 +6°C° 0 mm 9 m/S 752 mmHg 65%
20:00 +5°C° 0 mm 8 m/S 753 mmHg 66%
21:00 +5°C° 0 mm 8 m/S 754 mmHg 68%
22:00 +5°C° 0 mm 8 m/S 754 mmHg 68%
23:00 +4°C° 0 mm 7 m/S 754 mmHg 69%

12 März, Freitag

Zeit Temperatur Niederschläge Wind Luftdruck Luftfeuchtigkeit
00:00 +4°C° 0 mm 7 m/S 755 mmHg 69%
01:00 +4°C° 0 mm 7 m/S 755 mmHg 72%
02:00 +3°C° 0 mm 7 m/S 755 mmHg 75%
03:00 +3°C° 0 mm 7 m/S 755 mmHg 77%
04:00 +3°C° 0 mm 7 m/S 755 mmHg 79%
05:00 +3°C° 0 mm 7 m/S 755 mmHg 80%
06:00 +4°C° 0 mm 7 m/S 755 mmHg 81%
07:00 +4°C° 0.1 mm 8 m/S 755 mmHg 78%
08:00 +5°C° 0.1 mm 8 m/S 755 mmHg 75%
09:00 +6°C° 0.1 mm 9 m/S 755 mmHg 71%
10:00 +6°C° 0 mm 9 m/S 755 mmHg 69%
11:00 +6°C° 0 mm 9 m/S 755 mmHg 68%
12:00 +7°C° 0 mm 9 m/S 754 mmHg 66%
13:00 +7°C° 0.1 mm 9 m/S 754 mmHg 66%
14:00 +7°C° 0.1 mm 9 m/S 753 mmHg 67%
15:00 +7°C° 0.1 mm 9 m/S 753 mmHg 67%
16:00 +6°C° 0.5 mm 9 m/S 752 mmHg 73%
17:00 +6°C° 0.5 mm 9 m/S 752 mmHg 79%
18:00 +5°C° 0.5 mm 8 m/S 752 mmHg 85%
19:00 +5°C° 0.1 mm 8 m/S 752 mmHg 84%
20:00 +5°C° 0.1 mm 7 m/S 752 mmHg 83%
21:00 +4°C° 0.1 mm 7 m/S 752 mmHg 81%
22:00 +4°C° 0 mm 6 m/S 752 mmHg 81%
23:00 +4°C° 0 mm 6 m/S 753 mmHg 80%

13 März, Samstag

Zeit Temperatur Niederschläge Wind Luftdruck Luftfeuchtigkeit
00:00 +5°C° 0 mm 5 m/S 753 mmHg 80%
01:00 +5°C° 0.2 mm 5 m/S 753 mmHg 80%
02:00 +3°C° 0.2 mm 6 m/S 753 mmHg 80%
03:00 +3°C° 0.2 mm 6 m/S 753 mmHg 81%
04:00 +3°C° 0 mm 5 m/S 753 mmHg 83%
05:00 +3°C° 0 mm 5 m/S 753 mmHg 85%
06:00 +2°C° 0 mm 5 m/S 753 mmHg 87%
07:00 +3°C° 0 mm 5 m/S 754 mmHg 84%
08:00 +4°C° 0 mm 6 m/S 754 mmHg 81%
09:00 +5°C° 0 mm 6 m/S 754 mmHg 79%
10:00 +6°C° 0 mm 7 m/S 755 mmHg 73%
11:00 +8°C° 0 mm 7 m/S 755 mmHg 67%
12:00 +9°C° 0 mm 8 m/S 755 mmHg 62%
13:00 +8°C° 0.5 mm 7 m/S 755 mmHg 70%
14:00 +6°C° 0.5 mm 7 m/S 755 mmHg 79%
15:00 +6°C° 0.5 mm 7 m/S 754 mmHg 87%
16:00 +6°C° 0.3 mm 7 m/S 755 mmHg 85%
17:00 +6°C° 0.3 mm 7 m/S 755 mmHg 83%
18:00 +6°C° 0.3 mm 7 m/S 755 mmHg 81%
19:00 +6°C° 0 mm 7 m/S 755 mmHg 82%
20:00 +6°C° 0 mm 7 m/S 755 mmHg 83%
21:00 +6°C° 0 mm 7 m/S 755 mmHg 84%
22:00 +6°C° 0.1 mm 7 m/S 755 mmHg 85%
23:00 +6°C° 0.1 mm 8 m/S 755 mmHg 86%
Mehr zeigen

Wir brauchen deine Erlaubnis

Meteoprog und unser Service Anbieter werden persönliche Daten aufbewahren, so wie Cookies, Geräte Bezeichnung oder ähnliche Technologien von deinem Gerät und Prozess, so wie Persönliche Daten Inhalte und Werbungen, genauso wie social Media und den Verkehr zu analysieren.

  • Aufbewahrung und/oder Zugang zu deiner Geräte Informationen.

    Cookies, Geräte Bezeichnung oder andere Informationen, können aufbewahrt oder Zugang zu deinem Gerät erhalten, für den Grund, der oben angegeben wird.

  • Personalisierte Werbung und Inhalte, Messungen, Einblick in das Publikum und Produkt Entwicklung.

    Werbungen und Inhalte können personalisiert werden, basierend auf ein Profil. Mehr Daten können besser personalisierte Werbungen und Inhalte hinzufügen. Werbung und Inhalte können gezeigt und gemessen werden. Einblicke über das Publikum, welche die Werbung gesehen haben und den Inhalt, können abgeleitet werden. So wie Daten können genutzt werden, um es zu verbessern oder die Benutzer Erfahrung zu verbessern das System und die Software.

Wenn du “Ich stimme zu” klickst, erlaubst du uns, die Cookies zu benutzen die Geräte Bezeichnung, den Web oder ähnliche Technologien zu benutzen. Deine Settings, können in deinem Gerät bei deinem Browser geändert werden.

Für den bestimmten Zweck, berechtigten Interessen beruhen darauf, mehr als auf den Inhalt. Du kannst mehr darüber in unseren Privaten und Cookie Politik lesen.